This is the latest recevied weather packets stored in our database for station/object AA7VG. If no packets are shown the sender has not sent any weather packets the latest 10 day(s).
| Time | Temp. | Humidity | Pressure | Rain* | Wind** | Luminosity | Snow |
|---|---|---|---|---|---|---|---|
| 1777740977 | 17.22° C | 31% | 1018 hPa | 0 mm | - | - | - |
| 1777740674 | 17.22° C | 31% | 1018.4 hPa | 0 mm | - | - | - |
| 1777740369 | 17.22° C | 26% | 1018.5 hPa | 0 mm | - | - | - |
| 1777740067 | 17.22° C | 30% | 1018.3 hPa | 0 mm | - | - | - |
| 1777739763 | 17.22° C | 30% | 1018.3 hPa | 0 mm | - | - | - |
| 1777739459 | 16.11° C | 33% | 1018.4 hPa | 0 mm | - | - | - |
| 1777739156 | 16.11° C | 33% | 1018.5 hPa | 0 mm | - | - | - |
| 1777738853 | 16.11° C | 32% | 1018.6 hPa | 0 mm | - | - | - |
| 1777738550 | 15.56° C | 33% | 1018.4 hPa | 0 mm | - | - | - |
| 1777738248 | 16.11° C | 32% | 1018.5 hPa | 0 mm | - | - | - |
| 1777737946 | 15.56° C | 32% | 1018.5 hPa | 0 mm | - | - | - |
| 1777737644 | 15.56° C | 31% | 1018.4 hPa | 0 mm | - | - | - |
| 1777737342 | 16.11° C | 30% | 1018.7 hPa | 0 mm | - | - | - |
| 1777737039 | 15° C | 30% | 1018.6 hPa | 0 mm | - | - | - |
| 1777736734 | 15° C | 31% | 1018.7 hPa | 0 mm | - | - | - |
| 1777736101 | 15° C | 30% | 1018.7 hPa | 0 mm | - | - | - |
| 1777735798 | 15° C | 30% | 1018.6 hPa | 0 mm | - | - | - |
| 1777735495 | 14.44° C | 31% | 1018.8 hPa | 0 mm | - | - | - |
| 1777735193 | 14.44° C | 32% | 1018.7 hPa | 0 mm | - | - | - |
| 1777734889 | 13.89° C | 32% | 1018.9 hPa | 0 mm | - | - | - |
| 1777734587 | 13.33° C | 35% | 1018.9 hPa | 0 mm | - | - | - |
| 1777734284 | 12.78° C | 34% | 1019.2 hPa | 0 mm | - | - | - |
| 1777733980 | 12.22° C | 35% | 1019.1 hPa | 0 mm | - | - | - |
| 1777733677 | 12.22° C | 34% | 1019.1 hPa | 0 mm | - | - | - |
| 1777733373 | 11.67° C | 36% | 1019.1 hPa | 0 mm | - | - | - |
* Rain latest hour (hover to see other rain measurements)
** Current wind speed in m/s (hover to see current wind gust speed)